TIME,DELAY(SENSOR),PRES,OXYGEN,RAWTEMP,T(OPTODE),TCPHASE,FLUOR,BETA(BETA700),BETA(BETA412),BETA(BETA440),CDOM,C(CSC),ED(ED412.40),ED(ED444.00),ED(ED489.70),ED(ED554.30),LU(LU411.80),LU(LU443.40),LU(LU489.60),LU(LU554.10),COMP,TILTX,TILTY,CHECK
1381463240,5806,817.1099853515625000,46.3797683715820300,659.5980224609375000,4.6412048339843750,54.0540199279785160,53,99,84,78,78,15268,2147752941,2147425408,2148010761,2147872402,2147639862,2147052361,2148264612,2147196489,1280,4,13,43972
1381466836,5808,896.7399902343750000,49.8537292480468750,666.6854248046875000,4.4076290130615230,53.6513099670410160,53,97,84,78,78,15270,2147754907,2147425536,2148013549,2147873910,2147640310,2147052352,2148262893,2147198290,2597,3,13,8197
1381470436,5812,908.9799804687500000,50.7129287719726560,666.6204833984375000,4.4097709655761720,53.5265007019043000,52,96,87,78,78,15267,2147753792,2147423936,2148007972,2147874075,2147637833,2147054710,2148258669,2147195282,45,4,13,37875
1381474036,5807,933.6400146484375000,55.1926498413085940,667.4547119140625000,4.3822422027587890,52.9342002868652340,52,98,83,78,79,15270,2147757449,2147426038,2148009938,2147876891,2147639414,2147053942,2148259739,2147194413,32,4,13,34875
1381477636,5810,930.7800292968750000,55.7182884216308600,668.3563842773438000,4.3524742126464840,52.8749313354492200,52,96,87,78,78,15271,2147754605,2147423862,2148010258,2147874377,2147642861,2147055926,2148262262,2147196123,3501,3,13,45953
1381481236,5811,937.9500122070312000,55.9256706237793000,668.1754150390625000,4.3584518432617190,52.8510398864746100,51,96,85,78,79,15269,2147756818,2147425874,2148012909,2147872886,2147642944,2147058038,2148260854,2147196608,240,4,13,60215
1381484836,5811,956.4400024414062000,57.4155693054199200,670.2113037109375000,4.2912158966064450,52.6768112182617200,51,97,83,78,78,15269,2147753654,2147424530,2148012507,2147874816,2147642541,2147057179,2148262153,2147198573,387,4,13,44467
1381488436,5809,962.5100097656250000,57.6053695678710940,670.3842163085938000,4.2855072021484375,52.6566696166992200,51,96,83,79,78,15270,2147755282,2147423844,2148010413,2147873993,2147642322,2147054701,2148262720,2147199030,112,3,13,27971
1381492036,5809,964.3300170898438000,58.0000610351562500,670.5490112304688000,4.2800598144531250,52.6063995361328100,52,99,82,78,79,15268,2147758884,2147421513,2148010386,2147874066,2147640585,2147050898,2148262811,2147197833,82,4,13,64324
1381495636,5808,980.2199707031250000,56.3972282409668000,674.8114013671875000,4.1391282081604000,52.8741989135742200,52,98,88,79,77,15269,2147756443,2147422537,2148011885,2147873033,2147644224,2147050870,2148268397,2147199963,408,4,13,9572
1381499236,5808,982.7999877929688000,56.0473899841308600,675.4224243164062000,4.1189079284667970,52.9296913146972660,52,98,85,78,78,15270,2147753334,2147422592,2148011337,2147873536,2147642386,2147051346,2148262107,2147198592,245,4,13,65360
1381502836,5808,989.1099853515625000,56.0460700988769500,675.0726928710938000,4.1304821968078610,52.9249687194824200,53,97,85,77,78,15269,2147754916,2147427977,2148012608,2147874358,2147641627,2147048356,2148265088,2147196480,3569,4,13,8886
1381506436,5805,992.1500244140625000,55.9953498840332000,675.3903808593750000,4.1199669837951660,52.9352493286132800,52,97,85,79,78,15265,2147758464,2147426130,2148012672,2147876214,2147642221,2147050934,2148266614,2147193490,94,4,13,35005
1381510036,5808,990.8599853515625000,55.8231315612793000,674.7416992187500000,4.1414341926574710,52.9455909729003900,52,99,83,77,79,15261,2147758464,2147427428,2148012672,2147874112,2147639798,2147049728,2148263506,2147197933,3312,4,13,4632
1381513636,5808,993.1699829101562000,55.8768196105957000,675.2844848632812000,4.1234698295593260,52.9454917907714840,51,96,83,78,78,15257,2147758363,2147424210,2148012891,2147875803,2147639460,2147052233,2148268224,2147197851,3595,4,13,19852
1381517236,5808,997.8599853515625000,55.3781089782714840,675.2078247070312000,4.1260108947753910,53.0146102905273440,51,97,86,78,79,15262,2147753947,2147424310,2148012205,2147873051,2147641709,2147055588,2148259648,2147198546,140,4,13,3551
1381520836,5809,978.1500244140625000,55.9389190673828100,675.8214721679688000,4.1056981086730960,52.9444007873535160,52,96,86,78,80,15258,2147755062,2147421421,2148010669,2147873051,2147643419,2147058368,2148265124,2147196434,3037,4,13,34748
1381524436,5811,997.0399780273438000,56.1090698242187500,675.3458251953125000,4.1214427947998050,52.9153594970703100,52,97,83,77,79,15258,2147760877,2147425106,2148010907,2147874358,2147644306,2147051757,2148264438,2147198107,3455,4,13,9226
1381528036,5806,1001.1599731445312000,55.7559013366699200,674.7971801757812000,4.1395969390869140,52.9560508728027340,53,98,86,78,80,15257,2147756617,2147424859,2148011931,2147872886,2147642642,2147051913,2148260169,2147197869,171,4,13,15191
1381531636,5808,1003.5499877929688000,56.6551094055175800,674.1143188476562000,4.1621890068054200,52.8328895568847660,52,98,88,78,78,15259,2147756827,2147426011,2148012790,2147876242,2147642267,2147053120,2148263378,2147201645,522,4,13,25319
1381535236,5807,1006.6099853515625000,56.2628784179687500,674.3983154296875000,4.1527981758117680,52.8862495422363300,52,99,87,78,80,15257,2147759606,2147425462,2148012562,2147876745,2147639323,2147053952,2148264804,2147199844,429,4,13,26499
1381538836,5809,999.5700073242188000,55.9990081787109400,674.3717041015625000,4.1536750793457030,52.9188995361328100,52,96,85,77,78,15257,2147760320,2147426624,2148011776,2147874194,2147641426,2147053778,2148261942,2147199040,379,4,13,43710
1381542436,5807,995.1799926757812000,55.5427513122558600,675.8325805664062000,4.1053299903869630,52.9976387023925800,52,96,84,77,79,15252,2147756470,2147423149,2148010934,2147877659,2147640082,2147047524,2148265645,2147195794,3453,4,13,35822
1381546036,5807,995.9500122070312000,55.5252304077148440,675.8068847656250000,4.1061801910400390,53.0030708312988300,52,96,85,78,79,15258,2147757138,2147422729,2148012818,2147874925,2147638674,2147050249,2148264896,2147199369,3321,4,13,24295
1381549636,5810,996.9799804687500000,55.2232017517089840,675.6403808593750000,4.1116938591003420,53.0396003723144500,52,98,84,77,80,15239,2147757504,2147421997,2148013714,2147873581,2147640960,2147053888,2148263104,2147199222,3130,4,13,1880
1381553236,5809,1006.3900146484375000,55.3509216308593750,674.7521972656250000,4.1410870552062990,53.0112113952636700,52,96,83,77,78,15257,2147759113,2147423616,2148011904,2147873536,2147640512,2147047963,2148265188,2147200219,388,4,13,58452
1381556836,5807,1006.4500122070312000,55.9450988769531250,673.3707275390625000,4.1867852210998535,52.9123497009277340,52,95,84,79,79,15250,2147757494,2147424603,2148009664,2147875757,2147638052,2147056621,2148263808,2147200603,3352,4,13,64002
1381560436,5809,1005.6500244140625000,55.8310890197753900,674.3815917968750000,4.1533489227294920,52.9437484741210940,52,96,85,78,79,15254,2147758939,2147428699,2148011008,2147875309,2147638710,2147052214,2148262921,2147198153,3223,4,13,58619
1381564036,5808,1002.7800292968750000,55.4936599731445300,674.3765258789062000,4.1535167694091800,52.9855995178222660,52,97,84,76,79,15252,2147757622,2147424960,2148012608,2147873947,2147639926,2147050852,2148263360,2147196370,3414,4,13,23002
1381567636,5808,1006.5599975585938000,56.0942192077636700,674.4481811523438000,4.1511459350585940,52.9055480957031250,52,97,85,79,78,15251,2147756297,2147424374,2148012315,2147872621,2147642331,2147048054,2148262454,2147196608,3122,4,13,327
1381571236,5808,1001.6099853515625000,55.8136405944824200,675.4956054687500000,4.1164860725402830,52.9574012756347660,53,95,83,79,78,15251,2147757522,2147424283,2148011053,2147874889,2147639661,2147047725,2148266212,2147198244,347,4,13,10805
1381574836,5810,997.2700195312500000,55.9164581298828100,675.4274291992188000,4.1187419891357420,52.9446716308593750,52,98,85,79,78,15253,2147754971,2147423332,2148011657,2147874514,2147639606,2147050185,2148261494,2147199835,359,4,13,42946
1381578436,5811,1001.9600219726562000,55.4407501220703100,675.1220703125000000,4.1288471221923830,53.0036811828613300,52,97,84,78,78,15251,2147759680,2147425334,2148011392,2147874048,2147638290,2147053275,2148265801,2147195602,3389,4,13,9660
1381582036,5814,1002.3699951171875000,55.3578300476074200,674.9611816406250000,4.1341710090637210,53.0117683410644500,52,97,86,77,79,15252,2147760466,2147423396,2148011776,2147875474,2147638656,2147048475,2148263286,2147194541,23,4,13,20570
1381585636,5808,1000.1500244140625000,55.9215583801269500,675.0305175781250000,4.1318778991699220,52.9380111694335940,52,95,85,78,79,15254,2147758637,2147424210,2148010057,2147872265,2147643026,2147050002,2148260242,2147193252,3134,4,13,9694
1381589236,5808,1002.7899780273438000,55.8584403991699200,674.9929809570312000,4.1331181526184080,52.9443893432617200,51,97,83,79,79,15253,2147758811,2147425801,2148008978,2147874523,2147643657,2147057380,2148263899,2147198089,3432,4,13,21493
1381592836,5810,1004.5100097656250000,55.7844009399414060,674.9348144531250000,4.1350421905517580,52.9557304382324200,53,95,83,79,79,15249,2147757257,2147425170,2148010953,2147872932,2147644854,2147053056,2148265554,2147200146,27,4,13,36313
1381596436,5809,1003.0900268554688000,55.7307510375976560,674.7838745117188000,4.1400361061096190,52.9587593078613300,52,97,84,78,79,15251,2147755318,2147422701,2148012745,2147874459,2147641371,2147056082,2148269366,2147194678,154,4,13,13646
1381600036,5811,998.9299926757812000,55.3652915954589840,675.7125854492188000,4.1093029975891110,53.0172996520996100,52,98,81,77,78,15250,2147758948,2147423981,2148012416,2147872594,2147642633,2147052205,2148263808,2147195684,303,4,13,37077
1381603636,5810,997.7600097656250000,56.7736206054687500,676.0614013671875000,4.0977568626403810,52.8398208618164060,52,97,83,78,78,15253,2147760704,2147425307,2148011254,2147875556,2147643538,2147052169,2148258962,2147195209,3380,4,13,33229
1381607236,5809,1000.1400146484375000,56.6950492858886700,675.8682861328125000,4.1041469573974610,52.8507995605468750,52,96,87,77,79,15249,2147757650,2147424411,2148011593,2147874285,2147643538,2147053997,2148264082,2147197440,3236,4,13,23413
1381607755,5809,999.1300048828125000,56.4645500183105500,675.8994750976562000,4.1031169891357420,52.8804893493652340,52,98,82,77,79,15264,2147761133,2147425737,2148014546,2147876507,2147641216,2147051995,2148263058,2147199643,127,3,13,1483
